Regional Weather Roundup
Issued by NWS

Home | Current Version | Previous Version | Graphics & Text | Print | Product List | Glossary On
Versions: 1 2 3 4 5 6 7 8 9 10 11 12 13 14 15 16 17 18 19 20 21 22 23 24 25 26 27 28 29 30 31 32 33 34 35 36 37 38 39 40 41 42 43 44 45 46 47 48 49 50
000
ASUS43 KFSD 252310
RWRSD

WEATHER ROUNDUP FOR SOUTH DAKOTA
NATIONAL WEATHER SERVICE SIOUX FALLS SD
600 PM CDT MON MAY 25 2015

NOTE: "FAIR" INDICATES FEW OR NO CLOUDS BELOW 12,000 FEET WITH NO
SIGNIFICANT WEATHER AND/OR OBSTRUCTIONS TO VISIBILITY.


SDZ001>005-009-010-012>017-260000-
NORTHWEST AND NORTH CENTRAL SOUTH DAKOTA

CITY           SKY/WX    TMP DP  RH WIND       PRES   REMARKS
BUFFALO          N/A     58  52  80 E10       29.85R
FAITH            N/A     58  52  80 E14       29.91F
MOBRIDGE       CLOUDY    66  55  67 SE6       29.84R
$$

SDZ012>016-024>037-041>051-057-063-072>074-260000-
SOUTHWEST AND SOUTH CENTRAL SOUTH DAKOTA

CITY           SKY/WX    TMP DP  RH WIND       PRES   REMARKS
RAPID CTY ARPT LGT RAIN  57  54  89 NE6       29.87R
PIERRE         CLOUDY    61  52  72 NE10      29.83R
CUSTER         LGT RAIN  51  46  83 NW5       29.92R
ELLSWORTH AFB  CLOUDY    57  55  92 NE12      29.87
PHILIP         CLOUDY    61  55  81 NE16      29.84R
PINE RIDGE     HVY RAIN  54  50  86 W6        29.86R FOG
SPEARFISH      LGT RAIN  52  52 100 E6        29.93R
WINNER         LGT RAIN  60  57  89 N5        29.80F FOG
$$

SDZ004>011-016>023-039-040-260000-
NORTHEAST SOUTH DAKOTA

CITY           SKY/WX    TMP DP  RH WIND       PRES   REMARKS
ABERDEEN       CLOUDY    67  51  56 NE15      29.83R
WATERTOWN      CLOUDY    59  53  80 N13       29.80R
BROOKINGS      PTSUNNY   64  57  77 NW8       29.79S
SISSETON         N/A     65  53  65 NE18      29.78R
$$

SDZ017-020-022-023-036>040-048>070-260000-
SOUTHEAST SOUTH DAKOTA

CITY           SKY/WX    TMP DP  RH WIND       PRES   REMARKS
SIOUX FALLS    TSTM      65  59  81 NW6       29.76F
HURON          CLOUDY    66  54  65 NE14G23   29.79F
CHAMBERLAIN    CLOUDY    63  56  77 NE10      29.79S
MITCHELL       CLOUDY    68  58  70 N10       29.78F
YANKTON        PTSUNNY   70  57  64 N14       29.73F
$$

ABBREVIATIONS USED IN REMARKS
   TC - TEMPERATURE IN CELSIUS
  WCI - WIND CHILL INDEX
   HX - HEAT INDEX
  VSB - VISIBILITY




USA.gov is the U.S. government's official web portal to all federal, state and local government web resources and services.